Weather History for Amsterdam, Netherlands

Change the Weather History Date:

Friday, October 19, 2012

  Actual Average Record
Temperature  
Mean Temperature 61 °F -  
Max Temperature 68 °F 51 °F 68 °F (2012)
Min Temperature 54 °F 41 °F 37 °F (1998)
Degree Days  
Heating Degree Days 4    
Growing Degree Days 11 (Base 50)    
Moisture  
Dew Point 56 °F    
Average Humidity 86    
Maximum Humidity 100    
Minimum Humidity 57    
Precipitation  
Precipitation 0.00 in - - ()
Sea Level Pressure  
Sea Level Pressure 29.80 in    
Wind  
Wind Speed 5 mph ()    
Max Wind Speed 11 mph    
Max Gust Speed -    
Visibility 5.6 miles    
Events Rain    
Averages and records for this station are not official NWS values.
T = Trace of Precipitation, MM = Missing Value Source: Averaged Metar Reports

Daily Weather History Graph

Daily Weather History Graph

Search for Another Location

Airport:

Trip Planner

Search our weather history database for the weather conditions in past years. The results will help you decide how hot, cold, wet, or windy it might be!

Date:

Astronomy

Oct. 19, 2012 Rise Set
Actual Time 8:13 AM CEST 6:36 PM CEST
Civil Twilight 7:38 AM CEST 7:11 PM CEST
Nautical Twilight 6:59 AM CEST 7:50 PM CEST
Astronomical Twilight 6:20 AM CEST 8:30 PM CEST
Moon 1:09 PM CEST (10/19) 9:30 PM CEST (10/19)
Length of Visible Light 11h 32m
Length of Day
10h 23m
Waxing Crescent, 21% of the Moon is Illuminated
Oct 19
Waxing Crescent
Oct 22
First Quarter
Oct 29
Full
Nov 7
Last Quarter
Nov 13
New

Hourly Weather History & Observations

Time (CEST) Temp. Dew Point Humidity Pressure Visibility Wind Dir Wind Speed Gust Speed Precip Events Conditions
12:25 AM 55.4 °F 53.6 °F 94% 29.80 in 5.6 mi NNW 2.3 mph - N/A Rain Light Rain
12:55 AM 55.4 °F 55.4 °F 100% 29.80 in 4.3 mi NNW 3.5 mph - N/A Rain Light Rain
1:25 AM 55.4 °F 55.4 °F 100% 29.80 in 3.1 mi Variable 1.2 mph - N/A Rain Light Rain
1:55 AM 57.2 °F 55.4 °F 94% 29.80 in - East 5.8 mph - N/A Rain Rain Showers
2:00 AM 56 °F 55 °F 97% 29.78 in 3 mi East 6.7 mph - - Rain Rain
2:25 AM 55.4 °F 55.4 °F 100% 29.77 in 2.8 mi East 6.9 mph - N/A   Mist
2:55 AM 55.4 °F 55.4 °F 100% 29.77 in 2.2 mi East 4.6 mph - N/A Rain Light Rain Showers
3:25 AM 55.4 °F 55.4 °F 100% 29.77 in 1.6 mi East 4.6 mph - N/A Rain Rain Showers
3:55 AM 57.2 °F 57.2 °F 100% 29.77 in 1.7 mi ESE 3.5 mph - N/A Rain Light Rain
4:25 AM 57.2 °F 55.4 °F 94% 29.77 in 1.6 mi Variable 2.3 mph - N/A   Mostly Cloudy
4:55 AM 55.4 °F 55.4 °F 100% 29.77 in 1.1 mi ENE 1.2 mph - N/A   Overcast
5:00 AM 56 °F 55 °F 97% 29.79 in 1 mi ESE 2.2 mph - - Rain Rain
5:25 AM 55.4 °F 55.4 °F 100% 29.77 in 1.9 mi SE 2.3 mph - N/A Rain Light Rain
5:55 AM 57.2 °F 55.4 °F 94% 29.77 in 2.5 mi East 3.5 mph - N/A Rain Light Rain
6:25 AM 57.2 °F 57.2 °F 100% 29.77 in 3.7 mi East 3.5 mph - N/A   Mist
6:55 AM 57.2 °F 55.4 °F 94% 29.74 in 5.0 mi ESE 5.8 mph - N/A   Partly Cloudy
7:25 AM 57.2 °F 55.4 °F 94% 29.77 in 5.6 mi SSE 2.3 mph - N/A Rain Light Rain
7:55 AM 57.2 °F 55.4 °F 94% 29.74 in 5.0 mi ESE 6.9 mph - N/A Rain Light Rain
8:00 AM 57 °F 55 °F 92% 29.75 in 9 mi SE 6.7 mph - - Rain Heavy Rain
8:25 AM 57.2 °F 55.4 °F 94% 29.74 in - SSE 9.2 mph - N/A   Clear
8:55 AM 57.2 °F 55.4 °F 94% 29.77 in 6.2 mi South 4.6 mph - N/A Rain Light Rain
9:25 AM 57.2 °F 55.4 °F 94% 29.77 in - SSE 4.6 mph - N/A   Clear
9:55 AM 57.2 °F 55.4 °F 94% 29.80 in - South 3.5 mph - N/A   Clear
10:25 AM 59.0 °F 55.4 °F 88% 29.80 in - SE 4.6 mph - N/A   Clear
10:55 AM 60.8 °F 57.2 °F 88% 29.80 in - SSE 5.8 mph - N/A   Clear
11:00 AM 61 °F 56 °F 80% 29.81 in 17 mi SSE 6.7 mph - -   Partly Cloudy
11:25 AM 62.6 °F 55.4 °F 77% 29.80 in - SSE 8.1 mph - N/A   Clear
11:55 AM 64.4 °F 55.4 °F 73% 29.80 in - South 9.2 mph - N/A   Clear
12:25 PM 64.4 °F 57.2 °F 77% 29.80 in - South 6.9 mph - N/A   Clear
12:55 PM 66.2 °F 57.2 °F 73% 29.80 in - South 10.4 mph - N/A   Clear
1:25 PM 66.2 °F 55.4 °F 68% 29.77 in - South 10.4 mph - N/A   Clear
1:55 PM 68.0 °F 57.2 °F 68% 29.80 in - South 10.4 mph - N/A   Clear
2:00 PM 67 °F 55 °F 57% 29.82 in 18 mi South 11.2 mph - -   Partly Cloudy
2:25 PM 68.0 °F 57.2 °F 68% 29.80 in - SSW 10.4 mph - N/A   Clear
2:55 PM 68.0 °F 57.2 °F 68% 29.80 in - SSW 9.2 mph - N/A   Clear
3:25 PM 68.0 °F 57.2 °F 68% 29.83 in - SSW 6.9 mph - N/A   Clear
3:55 PM 66.2 °F 57.2 °F 73% 29.80 in - South 6.9 mph - N/A   Clear
4:25 PM 66.2 °F 57.2 °F 73% 29.80 in - South 4.6 mph - N/A   Clear
4:55 PM 66.2 °F 59.0 °F 78% 29.80 in - SE 5.8 mph - N/A   Clear
5:00 PM 65 °F 58 °F 71% 29.83 in 25 mi SSE 6.7 mph - - Rain Rain
5:25 PM 64.4 °F 59.0 °F 83% 29.80 in 6.2 mi SSE 4.6 mph - N/A Rain Light Rain
5:55 PM 64.4 °F 59.0 °F 83% 29.80 in - SE 4.6 mph - N/A   Clear
6:25 PM 62.6 °F 59.0 °F 88% 29.83 in - SSE 5.8 mph - N/A   Clear
6:55 PM 62.6 °F 57.2 °F 82% 29.83 in - SE 5.8 mph - N/A   Clear
7:25 PM 62.6 °F 57.2 °F 82% 29.83 in - SE 6.9 mph - N/A   Clear
7:55 PM 62.6 °F 57.2 °F 82% 29.83 in - SSE 6.9 mph - N/A   Clear
8:00 PM 63 °F 57 °F 75% 29.84 in 22 mi SSE 8.9 mph - -   Partly Cloudy
8:25 PM 62.6 °F 57.2 °F 82% 29.83 in 6.2 mi SSE 8.1 mph - N/A   Light Drizzle
8:55 PM 62.6 °F 57.2 °F 82% 29.83 in 6.2 mi South 9.2 mph - N/A   Light Drizzle
9:25 PM 62.6 °F 57.2 °F 82% 29.83 in 6.2 mi SSE 8.1 mph - N/A   Light Drizzle
9:55 PM 62.6 °F 57.2 °F 82% 29.83 in - South 10.4 mph - N/A   Clear
10:25 PM 62.6 °F 57.2 °F 82% 29.86 in - South 10.4 mph - N/A   Clear
10:55 PM 60.8 °F 57.2 °F 88% 29.86 in - SSE 8.1 mph - N/A   Clear
11:00 PM 61 °F 57 °F 82% 29.87 in 19 mi South 6.7 mph - -   Partly Cloudy
11:25 PM 60.8 °F 57.2 °F 88% 29.86 in - SSE 6.9 mph - N/A   Clear
11:55 PM 60.8 °F 57.2 °F 88% 29.83 in - SE 6.9 mph - N/A   Clear